FW7438 Weather Reports


Display with metric or nautical units.
time (UTC)temp
F
wind
direction
speed
MPH
gust
MPH
rain 1hr
in
rain 24hr
in
rain mn
in
humidity
%
barometer
mb
20260505111457 57 97 2.0 6.0 0.00 0.02 0.02 88 1005.7
20260505101456 61 293 2.0 4.0 0.00 0.02 0.02 90 1006.0
20260505095956 61 323 3.0 10.0 0.00 0.02 0.02 90 1006.0
20260505094456 61 359 1.0 5.0 0.00 0.02 0.02 89 1005.8
20260505092956 61 174 1.0 3.0 0.00 0.02 0.02 87 1004.7
20260505085956 61 226 2.0 7.0 0.02 0.02 0.02 89 1003.7
20260505082957 62 187 3.0 8.0 0.02 0.02 0.02 90 1004.2
20260505081456 63 251 4.0 13.0 0.00 0.00 0.00 87 1005.2
20260505075958 64 273 4.0 14.0 0.00 0.00 0.00 82 1005.1
20260505074456 65 290 5.0 14.0 0.00 0.00 0.00 78 1004.9
20260505072957 65 154 3.0 9.0 0.00 0.00 0.00 75 1005.1
20260505071456 66 198 2.0 7.0 0.00 0.00 0.00 74 1004.9
20260505065956 66 189 3.0 10.0 0.00 0.00 0.00 74 1004.6
20260505064456 66 196 3.0 7.0 0.00 0.00 0.00 74 1004.7
20260505062956 66 157 3.0 9.0 0.00 0.00 0.00 73 1005.1
20260505061456 66 155 2.0 6.0 0.00 0.00 0.00 74 1005.2
20260505055959 66 188 2.0 12.0 0.00 0.00 0.00 73 1005.1
20260505053000 67 167 3.0 9.0 0.00 0.00 0.00 71 1005.3
20260505051500 67 181 4.0 12.0 0.00 0.00 0.00 71 1005.3
20260505041500 68 158 3.0 9.0 0.00 0.00 0.00 70 1005.5
20260505034459 68 225 3.0 10.0 0.00 0.00 0.00 69 1006.0
20260505033000 69 207 4.0 10.0 0.00 0.00 0.00 68 1006.1
20260505031500 69 201 3.0 9.0 0.00 0.00 0.00 68 1006.0
20260505030002 69 214 3.0 8.0 0.00 0.00 0.00 68 1006.1
20260505022959 70 175 4.0 11.0 0.00 0.00 0.00 66 1005.8
20260505021459 71 209 3.0 8.0 0.00 0.00 0.00 65 1005.6
20260505015959 71 175 1.0 5.0 0.00 0.00 0.00 64 1005.4
20260505011459 72 198 2.0 7.0 0.00 0.00 0.00 60 1004.7
20260505005959 73 219 2.0 6.0 0.00 0.00 0.00 60 1004.7
20260505004458 74 136 4.0 12.0 0.00 0.00 0.00 58 1004.5
20260505002959 74 186 5.0 16.0 0.00 0.00 0.00 56 1004.3
20260505001459 75 221 3.0 14.0 0.00 0.00 0.00 55 1004.3
20260504234459 76 238 4.0 16.0 0.00 0.00 0.00 54 1004.4
20260504232959 77 213 5.0 11.0 0.00 0.00 0.00 53 1004.4
20260504231459 78 142 5.0 14.0 0.00 0.00 0.00 52 1004.4
20260504224459 78 191 5.0 13.0 0.00 0.00 0.00 53 1004.5
20260504222959 79 162 6.0 18.0 0.00 0.00 0.00 51 1004.4
20260504221459 78 220 6.0 14.0 0.00 0.00 0.00 55 1004.5
20260504215959 78 251 6.0 19.0 0.00 0.00 0.00 54 1004.5
20260504214459 79 153 6.0 16.0 0.00 0.00 0.00 53 1004.5
20260504212959 78 203 7.0 17.0 0.00 0.00 0.00 55 1004.7
20260504211458 79 278 5.0 12.0 0.00 0.00 0.00 54 1004.9
20260504205958 79 151 6.0 14.0 0.00 0.00 0.00 53 1005.0
20260504204458 79 211 7.0 19.0 0.00 0.00 0.00 53 1005.2
20260504201457 78 212 7.0 18.0 0.00 0.00 0.00 52 1005.6
20260504194459 79 177 5.0 13.0 0.00 0.00 0.00 55 1005.9
20260504193000 78 172 7.0 15.0 0.00 0.00 0.00 54 1006.0
20260504185959 78 266 8.0 21.0 0.00 0.00 0.00 53 1006.2
20260504184458 78 285 6.0 13.0 0.00 0.00 0.00 55 1006.2
20260504175958 77 206 7.0 15.0 0.00 0.00 0.00 57 1006.0
20260504174458 76 180 7.0 16.0 0.00 0.00 0.00 55 1006.3
20260504172958 76 193 7.0 17.0 0.00 0.00 0.00 57 1006.4
20260504171458 76 148 7.0 19.0 0.00 0.00 0.00 56 1006.4